カタログに戻る

STARLINK-35120

運用中通信SSO
NORAD 65659·PAYLOAD·🇺🇸 United States

打ち上げ Sep 19, 2025 から Vandenberg Space Force Base

Loading…

次のパス (今後24時間)

TLE

最新Source: CelesTrak SupGP

元期: Sep 14, 2026, 21:28 UTC

1 65659C 25211H   26257.89493056 -.00006084  00000+0 -18891-3 0  2574
2 65659  97.2836 298.1695 0001241  90.7710 205.6154 15.33435839    18

AllMySatでSTARLINK-35120をリアルタイム追跡

Download on the App Store